Location: Jesenik
(50.2330°N, 17.2000°E)
Time: 15:51:53
(UTC+02:00)

ISS - Pass Details

Date: 29 March 2019
Orbit: 408 x 410 km, 51.6° (Epoch: 25 April)

Event Time Altitude Azimuth Distance (km) Brightness Sun altitude
Rises 20:04:49 0° 277° (W) 2,336 1.4 -17.1°
Reaches altitude 10° 20:06:55 10° 281° (W) 1,474 0.1 -17.4°
Maximum altitude 20:10:12 68° 4° (N) 445 -3.6 -17.8°
Enters shadow 20:10:55 49° 67° (ENE) 538 -3.5 -17.9°
